Weather History for Shawano, WI

Change the Weather History Date:

Thursday, March 20, 2014

  Actual Average (KGRB) Record (KGRB)
Temperature  
Mean Temperature 32 °F 32 °F  
Max Temperature 40 °F 41 °F 80 °F (2012)
Min Temperature 25 °F 24 °F -4 °F (1965)
Degree Days  
Heating Degree Days 32 33  
Month to date heating degree days 730  
Since 1 July heating degree days 6570  
Cooling Degree Days 0 0  
Month to date cooling degree days 0  
Year to date cooling degree days 0  
Moisture  
Dew Point 20 °F    
Average Humidity 60    
Maximum Humidity 82    
Minimum Humidity 38    
Precipitation  
Precipitation 0.00 in 0.06 in 1.09 in (1995)
Month to date precipitation 1.13  
Year to date precipitation 3.37  
Snow  
Snow 0.00 in 0.20 in 5.40 in (1933)
Month to date snowfall 6.0  
Since 1 July snowfall 46.2  
Snow Depth -    
Sea Level Pressure  
Sea Level Pressure 29.95 in    
Wind  
Wind Speed 5 mph (West)    
Max Wind Speed 9 mph    
Max Gust Speed 20 mph    
Visibility 10 miles    
Events      
T = Trace of Precipitation, MM = Missing Value Source: NWS Daily Summary

Daily Weather History Graph

Daily Weather History Graph

Search for Another Location

Airport:

Trip Planner

Search our weather history database for the weather conditions in past years. The results will help you decide how hot, cold, wet, or windy it might be!

Date:

Astronomy

Mar. 20, 2014 Rise Set
Actual Time 6:57 AM CDT 7:06 PM CDT
Civil Twilight 6:28 AM CDT 7:35 PM CDT
Nautical Twilight 5:54 AM CDT 8:10 PM CDT
Astronomical Twilight 5:18 AM CDT 8:45 PM CDT
Moon 11:37 PM CDT (3/20) 8:53 AM CDT (3/20)
Length of Visible Light 13h 07m
Length of Day
12h 09m
Waning Gibbous, 84% of the Moon is Illuminated
Mar 20
Waning Gibbous
Mar 23
Last Quarter
Mar 30
New
Apr 7
First Quarter
Apr 15
Full

Hourly Weather History & Observations

Time (CDT) Temp. Windchill Dew Point Humidity Pressure Visibility Wind Dir Wind Speed Gust Speed Precip Events Conditions
12:15 AM 34.3 °F 27.0 °F 24.6 °F 68% 29.87 in 10.0 mi WNW 9.2 mph - N/A   Overcast
12:35 AM 34.3 °F 27.0 °F 24.4 °F 67% 29.87 in 10.0 mi WNW 9.2 mph 19.6 mph N/A   Overcast
12:55 AM 34.0 °F 27.2 °F 24.4 °F 68% 29.87 in 10.0 mi WNW 8.1 mph - N/A   Overcast
1:15 AM 33.4 °F 27.3 °F 24.1 °F 69% 29.87 in 10.0 mi West 6.9 mph - N/A   Mostly Cloudy
1:35 AM 33.1 °F 25.5 °F 23.4 °F 67% 29.88 in 10.0 mi WNW 9.2 mph - N/A   Clear
1:55 AM 32.9 °F 26.7 °F 23.0 °F 67% 29.88 in 10.0 mi WNW 6.9 mph - N/A   Clear
2:15 AM 32.5 °F 27.1 °F 23.0 °F 68% 29.88 in 10.0 mi West 5.8 mph - N/A   Scattered Clouds
2:35 AM 32.4 °F 26.9 °F 22.5 °F 67% 29.89 in 10.0 mi West 5.8 mph - N/A   Scattered Clouds
2:55 AM 32.0 °F 27.5 °F 21.9 °F 66% 29.89 in 10.0 mi West 4.6 mph - N/A   Clear
3:15 AM 32.0 °F 27.5 °F 21.4 °F 65% 29.89 in 10.0 mi West 4.6 mph - N/A   Clear
3:35 AM 31.3 °F 25.6 °F 21.2 °F 66% 29.89 in 10.0 mi West 5.8 mph - N/A   Clear
3:55 AM 31.1 °F 26.4 °F 21.0 °F 66% 29.90 in 10.0 mi West 4.6 mph - N/A   Scattered Clouds
4:15 AM 30.7 °F 27.3 °F 20.8 °F 67% 29.90 in 10.0 mi West 3.5 mph - N/A   Scattered Clouds
4:35 AM 30.2 °F 26.7 °F 20.8 °F 68% 29.91 in 10.0 mi WNW 3.5 mph - N/A   Clear
4:55 AM 29.8 °F 26.3 °F 20.5 °F 68% 29.91 in 10.0 mi West 3.5 mph - N/A   Clear
5:15 AM 29.5 °F - 20.7 °F 70% 29.92 in 10.0 mi Calm Calm - N/A   Clear
5:35 AM 29.1 °F - 20.7 °F 71% 29.93 in 10.0 mi Calm Calm - N/A   Scattered Clouds
5:55 AM 29.3 °F 24.3 °F 20.8 °F 71% 29.93 in 10.0 mi West 4.6 mph - N/A   Mostly Cloudy
6:15 AM 30.2 °F 25.4 °F 21.2 °F 69% 29.94 in 10.0 mi West 4.6 mph - N/A   Overcast
6:35 AM 30.7 °F 27.3 °F 21.7 °F 69% 29.94 in 10.0 mi West 3.5 mph - N/A   Overcast
6:55 AM 31.1 °F - 22.1 °F 69% 29.94 in 10.0 mi Calm Calm - N/A   Overcast
7:15 AM 31.6 °F 28.3 °F 22.5 °F 69% 29.94 in 10.0 mi West 3.5 mph - N/A   Overcast
7:35 AM 31.8 °F 28.5 °F 22.8 °F 69% 29.95 in 10.0 mi West 3.5 mph - N/A   Overcast
7:55 AM 32.0 °F 28.7 °F 23.0 °F 69% 29.96 in 10.0 mi West 3.5 mph - N/A   Overcast
8:15 AM 32.0 °F 26.4 °F 23.0 °F 69% 29.96 in 10.0 mi West 5.8 mph - N/A   Overcast
8:35 AM 32.5 °F 28.1 °F 23.0 °F 68% 29.96 in 10.0 mi WNW 4.6 mph - N/A   Overcast
8:55 AM 32.9 °F 28.5 °F 23.4 °F 68% 29.97 in 10.0 mi West 4.6 mph - N/A   Overcast
9:15 AM 33.3 °F 30.2 °F 23.4 °F 67% 29.97 in 10.0 mi West 3.5 mph - N/A   Overcast
9:35 AM 33.3 °F 30.2 °F 23.4 °F 67% 29.98 in 10.0 mi West 3.5 mph - N/A   Overcast
9:55 AM 33.8 °F 29.6 °F 23.4 °F 66% 29.98 in 10.0 mi WNW 4.6 mph - N/A   Overcast
10:15 AM 34.2 °F 30.0 °F 22.8 °F 63% 29.99 in 10.0 mi West 4.6 mph - N/A   Overcast
10:35 AM 34.3 °F 27.7 °F 19.4 °F 54% 29.99 in 10.0 mi WNW 8.1 mph - N/A   Overcast
10:55 AM 34.9 °F 29.0 °F 18.7 °F 52% 29.99 in 10.0 mi WNW 6.9 mph - N/A   Overcast
11:15 AM 35.2 °F 28.1 °F 19.6 °F 53% 29.99 in 10.0 mi WNW 9.2 mph - N/A   Overcast
11:35 AM 35.8 °F 30.1 °F 18.9 °F 50% 29.99 in 10.0 mi NW 6.9 mph - N/A   Overcast
11:55 AM 35.8 °F 29.4 °F 18.9 °F 50% 29.99 in 10.0 mi NW 8.1 mph - N/A   Overcast
12:15 PM 36.3 °F 30.8 °F 19.0 °F 50% 29.98 in 10.0 mi West 6.9 mph - N/A   Overcast
12:35 PM 36.7 °F 30.5 °F 18.9 °F 49% 29.98 in 10.0 mi West 8.1 mph - N/A   Overcast
12:55 PM 36.7 °F 31.2 °F 18.5 °F 48% 29.98 in 10.0 mi West 6.9 mph - N/A   Overcast
1:15 PM 36.9 °F 31.4 °F 18.5 °F 47% 29.98 in 10.0 mi West 6.9 mph - N/A   Overcast
1:35 PM 36.9 °F 33.1 °F 19.2 °F 49% 29.98 in 10.0 mi West 4.6 mph - N/A   Overcast
1:55 PM 37.2 °F 32.6 °F 18.9 °F 48% 29.97 in 10.0 mi WNW 5.8 mph - N/A   Overcast
2:15 PM 37.6 °F 34.0 °F 19.0 °F 47% 29.97 in 10.0 mi WNW 4.6 mph - N/A   Overcast
2:35 PM 37.8 °F 33.3 °F 18.9 °F 47% 29.97 in 10.0 mi WNW 5.8 mph - N/A   Overcast
2:55 PM 39.0 °F 34.0 °F 18.0 °F 43% 29.97 in 10.0 mi NW 6.9 mph - N/A   Overcast
3:15 PM 38.8 °F 34.6 °F 17.4 °F 42% 29.96 in 10.0 mi NW 5.8 mph - N/A   Mostly Cloudy
3:35 PM 39.2 °F 35.0 °F 17.4 °F 41% 29.96 in 10.0 mi NNW 5.8 mph - N/A   Scattered Clouds
3:55 PM 39.7 °F 36.5 °F 17.4 °F 41% 29.96 in 10.0 mi WSW 4.6 mph - N/A   Clear
4:15 PM 39.7 °F 37.6 °F 18.3 °F 42% 29.95 in 10.0 mi NW 3.5 mph - N/A   Clear
4:35 PM 40.1 °F 36.9 °F 18.0 °F 41% 29.96 in 10.0 mi West 4.6 mph - N/A   Clear
4:55 PM 40.1 °F 38.0 °F 17.1 °F 39% 29.96 in 10.0 mi West 3.5 mph - N/A   Clear
5:15 PM 40.5 °F 36.5 °F 16.3 °F 38% 29.96 in 10.0 mi West 5.8 mph - N/A   Clear
5:35 PM 40.5 °F 36.5 °F 17.6 °F 40% 29.96 in 10.0 mi West 5.8 mph - N/A   Clear
5:55 PM 40.3 °F 36.3 °F 17.2 °F 39% 29.96 in 10.0 mi SW 5.8 mph - N/A   Clear
6:15 PM 40.3 °F 37.1 °F 16.5 °F 38% 29.96 in 10.0 mi West 4.6 mph - N/A   Clear
6:35 PM 40.1 °F 38.0 °F 17.1 °F 39% 29.96 in 10.0 mi West 3.5 mph - N/A   Clear
6:55 PM 39.2 °F 35.9 °F 17.6 °F 42% 29.97 in 10.0 mi West 4.6 mph - N/A   Clear
7:15 PM 38.3 °F - 18.3 °F 45% 29.97 in 10.0 mi Calm Calm - N/A   Clear
7:35 PM 36.3 °F - 18.7 °F 49% 29.97 in 10.0 mi Calm Calm - N/A   Clear
7:55 PM 34.5 °F - 20.3 °F 56% 29.97 in 10.0 mi Calm Calm - N/A   Clear
8:15 PM 33.4 °F - 20.5 °F 59% 29.98 in 10.0 mi Calm Calm - N/A   Clear
8:35 PM 32.4 °F - 21.2 °F 63% 29.98 in 10.0 mi Calm Calm - N/A   Clear
8:55 PM 32.0 °F - 21.4 °F 65% 29.99 in 10.0 mi Calm Calm - N/A   Clear
9:15 PM 32.0 °F - 20.3 °F 62% 29.99 in 10.0 mi Calm Calm - N/A   Clear
9:35 PM 28.9 °F - 21.2 °F 73% 29.99 in 10.0 mi Calm Calm - N/A   Clear
9:55 PM 28.9 °F - 20.7 °F 71% 29.99 in 10.0 mi Calm Calm - N/A   Clear
10:15 PM 27.7 °F - 21.0 °F 76% 29.99 in 10.0 mi Calm Calm - N/A   Clear
10:35 PM 26.4 °F - 21.0 °F 80% 30.00 in 10.0 mi Calm Calm - N/A   Clear
10:55 PM 26.4 °F - 20.5 °F 78% 30.01 in 10.0 mi Calm Calm - N/A   Clear
11:15 PM 26.8 °F - 21.2 °F 79% 30.00 in 10.0 mi Calm Calm - N/A   Clear
11:35 PM 25.7 °F - 19.9 °F 79% 30.01 in 10.0 mi Calm Calm - N/A   Clear
11:55 PM 25.7 °F - 21.0 °F 82% 30.01 in 10.0 mi Calm Calm - N/A   Clear